Terminal Aerodrome Forecast
Issued by NWS

Current Version | Previous Version | Graphics & Text | Print | Product List | Glossary On
Versions: 1 2 3 4 5 6 7 8 9 10 11 12 13 14 15 16 17 18 19 20 21 22 23 24 25 26 27 28 29 30 31
000
FTUS41 KRNK 291133
TAFLWB
TAF
KLWB 291133Z 2912/3012 00000KT P6SM SKC
     FM291300 VRB03KT P6SM SCT040
     FM292300 12004KT P6SM BKN045
     FM300500 00000KT P6SM SCT250=

USA.gov is the U.S. government's official web portal to all federal, state and local government web resources and services.